When you browse on this site, cookies collect data to enhance your experience and personalize the content and advertising you see.
Visit our Privacy Policy to learn more. By continuing to use the site, you agree to this use of cookies and data.
  • In United Kingdom
  • List of Countries
  • For 7 days
  • Water Temperature
  • Satellite Maps
  • Weather Map
  • Weather Widgets
  • user-avatar
    Login

    Hourly Weather Knighton

    Today, 26 June, Wednesday

    Time Temperature Precipitation Wind Pressure Humidity
    00:00 +13°C° 0 mm 2 mps 739 mmHg 97%
    01:00 +13°C° 0 mm 2 mps 739 mmHg 97%
    02:00 +13°C° 0 mm 2 mps 739 mmHg 97%
    03:00 +13°C° 0 mm 2 mps 739 mmHg 98%
    04:00 +13°C° 0 mm 2 mps 740 mmHg 97%
    05:00 +13°C° 0 mm 2 mps 740 mmHg 97%
    06:00 +13°C° 0 mm 2 mps 740 mmHg 97%
    07:00 +12°C° 0 mm 3 mps 741 mmHg 96%
    08:00 +12°C° 0 mm 3 mps 741 mmHg 95%
    09:00 +13°C° 0 mm 3 mps 741 mmHg 94%
    10:00 +13°C° 0 mm 3 mps 742 mmHg 93%
    11:00 +14°C° 0 mm 3 mps 742 mmHg 92%
    12:00 +14°C° 0 mm 3 mps 743 mmHg 90%
    13:00 +15°C° 0 mm 4 mps 742 mmHg 89%
    14:00 +15°C° 0 mm 5 mps 742 mmHg 89%
    15:00 +16°C° 0 mm 5 mps 742 mmHg 88%
    16:00 +16°C° 0 mm 5 mps 742 mmHg 88%
    17:00 +15°C° 0 mm 5 mps 742 mmHg 88%
    18:00 +15°C° 0 mm 5 mps 742 mmHg 88%
    19:00 +14°C° 0 mm 5 mps 742 mmHg 91%
    20:00 +13°C° 0 mm 4 mps 742 mmHg 94%
    21:00 +12°C° 0 mm 4 mps 742 mmHg 96%
    22:00 +11°C° 0 mm 3 mps 743 mmHg 96%
    23:00 +10°C° 0 mm 3 mps 743 mmHg 96%

    Tomorrow, 27 June, Thursday

    Time Temperature Precipitation Wind Pressure Humidity
    00:00 +9°C° 0 mm 3 mps 743 mmHg 96%
    01:00 +8°C° 0 mm 3 mps 743 mmHg 95%
    02:00 +8°C° 0 mm 2 mps 742 mmHg 95%
    03:00 +7°C° 0 mm 2 mps 742 mmHg 95%
    04:00 +8°C° 0 mm 2 mps 742 mmHg 93%
    05:00 +8°C° 0 mm 2 mps 742 mmHg 91%
    06:00 +9°C° 0 mm 2 mps 742 mmHg 89%
    07:00 +10°C° 0 mm 3 mps 742 mmHg 84%
    08:00 +12°C° 0 mm 4 mps 742 mmHg 79%
    09:00 +13°C° 0 mm 4 mps 743 mmHg 74%
    10:00 +15°C° 0 mm 5 mps 743 mmHg 75%
    11:00 +16°C° 0 mm 5 mps 743 mmHg 75%
    12:00 +17°C° 0 mm 6 mps 743 mmHg 75%
    13:00 +19°C° 0 mm 6 mps 742 mmHg 77%
    14:00 +19°C° 0 mm 6 mps 742 mmHg 78%
    15:00 +20°C° 0 mm 6 mps 742 mmHg 79%
    16:00 +18°C° 0 mm 7 mps 742 mmHg 80%
    17:00 +18°C° 0 mm 7 mps 741 mmHg 82%
    18:00 +17°C° 0 mm 7 mps 741 mmHg 83%
    19:00 +16°C° 0 mm 6 mps 741 mmHg 84%
    20:00 +14°C° 0 mm 5 mps 740 mmHg 85%
    21:00 +12°C° 0 mm 5 mps 740 mmHg 86%
    22:00 +11°C° 0 mm 4 mps 740 mmHg 88%
    23:00 +10°C° 0 mm 4 mps 740 mmHg 91%

    Day after tomorrow, 28 June, Friday

    Time Temperature Precipitation Wind Pressure Humidity
    00:00 +9°C° 0 mm 3 mps 740 mmHg 94%
    01:00 +9°C° 0 mm 3 mps 740 mmHg 94%
    02:00 +8°C° 0 mm 3 mps 739 mmHg 95%
    03:00 +8°C° 0 mm 3 mps 739 mmHg 96%
    04:00 +8°C° 0 mm 3 mps 739 mmHg 95%
    05:00 +9°C° 0 mm 3 mps 739 mmHg 94%
    06:00 +10°C° 0 mm 4 mps 738 mmHg 93%
    07:00 +11°C° 0 mm 4 mps 738 mmHg 90%
    08:00 +13°C° 0 mm 5 mps 738 mmHg 86%
    09:00 +14°C° 0 mm 5 mps 738 mmHg 83%
    10:00 +16°C° 0 mm 6 mps 738 mmHg 81%
    11:00 +17°C° 0 mm 6 mps 738 mmHg 80%
    12:00 +20°C° 0 mm 6 mps 737 mmHg 78%
    13:00 +20°C° 0 mm 7 mps 737 mmHg 79%
    14:00 +21°C° 0 mm 7 mps 737 mmHg 79%
    15:00 +21°C° 0 mm 7 mps 736 mmHg 80%
    16:00 +21°C° 0 mm 6 mps 736 mmHg 81%
    17:00 +20°C° 0 mm 6 mps 736 mmHg 82%
    18:00 +20°C° 0 mm 6 mps 735 mmHg 83%
    19:00 +17°C° 0 mm 5 mps 735 mmHg 86%
    20:00 +15°C° 0 mm 4 mps 735 mmHg 88%
    21:00 +13°C° 0 mm 4 mps 735 mmHg 91%
    22:00 +12°C° 0 mm 3 mps 734 mmHg 92%
    23:00 +12°C° 0 mm 2 mps 734 mmHg 93%

    29 June, Saturday

    Time Temperature Precipitation Wind Pressure Humidity
    00:00 +11°C° 0 mm 1 mps 734 mmHg 93%
    01:00 +11°C° 0 mm 1 mps 733 mmHg 94%
    02:00 +11°C° 0 mm 1 mps 733 mmHg 94%
    03:00 +11°C° 0 mm 1 mps 733 mmHg 95%
    04:00 +12°C° 0 mm 1 mps 732 mmHg 94%
    05:00 +13°C° 0 mm 1 mps 732 mmHg 92%
    06:00 +13°C° 0 mm 1 mps 732 mmHg 91%
    07:00 +14°C° 0 mm 1 mps 732 mmHg 90%
    08:00 +15°C° 0 mm 1 mps 732 mmHg 89%
    09:00 +16°C° 0 mm 1 mps 732 mmHg 88%
    10:00 +18°C° 0.1 mm 1 mps 731 mmHg 89%
    11:00 +18°C° 0.1 mm 1 mps 731 mmHg 90%
    12:00 +19°C° 0.1 mm 1 mps 731 mmHg 91%
    13:00 +18°C° 0 mm 2 mps 730 mmHg 90%
    14:00 +19°C° 0 mm 3 mps 730 mmHg 89%
    15:00 +19°C° 0 mm 3 mps 730 mmHg 88%
    16:00 +19°C° 0 mm 4 mps 730 mmHg 86%
    17:00 +19°C° 0 mm 4 mps 730 mmHg 85%
    18:00 +19°C° 0 mm 5 mps 730 mmHg 83%
    19:00 +17°C° 0 mm 4 mps 730 mmHg 87%
    20:00 +14°C° 0 mm 4 mps 730 mmHg 90%
    21:00 +12°C° 0 mm 4 mps 730 mmHg 94%
    22:00 +12°C° 0 mm 4 mps 730 mmHg 94%
    23:00 +12°C° 0 mm 4 mps 730 mmHg 93%

    30 June, Sunday

    Time Temperature Precipitation Wind Pressure Humidity
    00:00 +12°C° 0 mm 5 mps 731 mmHg 93%
    01:00 +12°C° 0 mm 5 mps 731 mmHg 90%
    02:00 +12°C° 0 mm 5 mps 730 mmHg 87%
    03:00 +13°C° 0 mm 5 mps 730 mmHg 84%
    04:00 +13°C° 0 mm 5 mps 731 mmHg 85%
    05:00 +13°C° 0 mm 5 mps 731 mmHg 86%
    06:00 +13°C° 0 mm 5 mps 731 mmHg 87%
    07:00 +13°C° 0 mm 5 mps 731 mmHg 86%
    08:00 +14°C° 0 mm 6 mps 732 mmHg 86%
    09:00 +14°C° 0 mm 6 mps 732 mmHg 86%
    10:00 +15°C° 0 mm 6 mps 732 mmHg 84%
    11:00 +15°C° 0 mm 6 mps 732 mmHg 82%
    12:00 +16°C° 0 mm 6 mps 732 mmHg 80%
    13:00 +16°C° 0.1 mm 6 mps 732 mmHg 80%
    14:00 +15°C° 0.1 mm 6 mps 732 mmHg 80%
    15:00 +15°C° 0.1 mm 6 mps 732 mmHg 80%
    16:00 +15°C° 0 mm 5 mps 732 mmHg 81%
    17:00 +15°C° 0 mm 5 mps 732 mmHg 82%
    18:00 +14°C° 0 mm 5 mps 732 mmHg 82%
    19:00 +13°C° 0 mm 4 mps 732 mmHg 86%
    20:00 +12°C° 0 mm 4 mps 733 mmHg 89%
    21:00 +10°C° 0 mm 4 mps 733 mmHg 92%
    22:00 +10°C° 0 mm 4 mps 733 mmHg 93%
    23:00 +10°C° 0 mm 4 mps 733 mmHg 93%

    1 July, Monday

    Time Temperature Precipitation Wind Pressure Humidity
    00:00 +8°C° 0 mm 4 mps 733 mmHg 94%
    01:00 +7°C° 0 mm 4 mps 733 mmHg 94%
    02:00 +8°C° 0 mm 3 mps 733 mmHg 95%
    03:00 +7°C° 0 mm 3 mps 733 mmHg 95%
    04:00 +7°C° 0 mm 4 mps 733 mmHg 93%
    05:00 +8°C° 0 mm 4 mps 734 mmHg 92%
    06:00 +8°C° 0 mm 5 mps 734 mmHg 91%
    07:00 +9°C° 0 mm 6 mps 734 mmHg 85%
    08:00 +10°C° 0 mm 6 mps 734 mmHg 80%
    09:00 +11°C° 0 mm 7 mps 735 mmHg 74%
    10:00 +11°C° 0 mm 7 mps 735 mmHg 74%
    11:00 +12°C° 0 mm 7 mps 735 mmHg 75%
    12:00 +14°C° 0 mm 7 mps 736 mmHg 75%
    13:00 +14°C° 0 mm 7 mps 736 mmHg 75%
    14:00 +14°C° 0 mm 7 mps 736 mmHg 75%
    15:00 +15°C° 0 mm 7 mps 736 mmHg 75%
    16:00 +15°C° 0.1 mm 6 mps 736 mmHg 77%
    17:00 +14°C° 0.1 mm 5 mps 737 mmHg 78%
    18:00 +14°C° 0.1 mm 4 mps 737 mmHg 79%
    19:00 +12°C° 0 mm 4 mps 737 mmHg 83%
    20:00 +11°C° 0 mm 3 mps 738 mmHg 87%
    21:00 +9°C° 0 mm 2 mps 738 mmHg 92%
    22:00 +8°C° 0 mm 2 mps 738 mmHg 92%
    23:00 +9°C° 0 mm 1 mps 738 mmHg 92%
    Show more